Weather History for Ozona, TX

Change the Weather History Date:

Wednesday, January 8, 2014

  Actual Average Record
Temperature  
Mean Temperature 46 °F -  
Max Temperature 60 °F 54 °F 62 °F (2012)
Min Temperature 32 °F 29 °F 21 °F (2015)
Degree Days  
Heating Degree Days 19    
Moisture  
Dew Point 33 °F    
Average Humidity 76    
Maximum Humidity 93    
Minimum Humidity 39    
Precipitation  
Precipitation 0.00 in - - ()
Sea Level Pressure  
Sea Level Pressure 30.12 in    
Wind  
Wind Speed 12 mph (South)    
Max Wind Speed 18 mph    
Max Gust Speed 25 mph    
Visibility 10 miles    
Events      
Averages and records for this station are not official NWS values.
T = Trace of Precipitation, MM = Missing Value Source: NWS Daily Summary

Daily Weather History Graph

Daily Weather History Graph

Search for Another Location

Airport:

Trip Planner

Search our weather history database for the weather conditions in past years. The results will help you decide how hot, cold, wet, or windy it might be!

Date:

Astronomy

Jan. 08, 2014 Rise Set
Actual Time 7:43 AM CST 6:00 PM CST
Civil Twilight 7:17 AM CST 6:26 PM CST
Nautical Twilight 6:47 AM CST 6:56 PM CST
Astronomical Twilight 6:18 AM CST 7:25 PM CST
Moon 12:41 PM CST (1/8) 1:05 AM CST (1/8)
Length of Visible Light 11h 09m
Length of Day
10h 16m
First Quarter, 56% of the Moon is Illuminated
Jan 8
First Quarter
Jan 15
Full
Jan 23
Last Quarter
Jan 30
New
Feb 6
First Quarter

Hourly Weather History & Observations

Time (CST) Temp. Windchill Dew Point Humidity Pressure Visibility Wind Dir Wind Speed Gust Speed Precip Events Conditions
12:15 AM 33.8 °F 23.5 °F 30.2 °F 87% 30.20 in 10.0 mi South 16.1 mph 20.7 mph N/A   Clear
12:35 AM 32.0 °F 21.6 °F 30.2 °F 93% 30.19 in 10.0 mi South 15.0 mph 19.6 mph N/A   Clear
12:55 AM 32.0 °F 21.6 °F 30.2 °F 93% 30.19 in 10.0 mi South 15.0 mph 20.7 mph N/A   Clear
1:15 AM 33.8 °F 24.8 °F 30.2 °F 87% 30.18 in 10.0 mi South 12.7 mph 16.1 mph N/A   Scattered Clouds
1:35 AM 33.8 °F 24.3 °F 32.0 °F 93% 30.17 in 10.0 mi South 13.8 mph 23.0 mph N/A   Overcast
1:55 AM 35.6 °F 25.9 °F 32.0 °F 87% 30.17 in 10.0 mi South 16.1 mph 21.9 mph N/A   Overcast
2:15 AM 35.6 °F 26.6 °F 32.0 °F 87% 30.16 in 10.0 mi South 13.8 mph 24.2 mph N/A   Overcast
2:35 AM 35.6 °F 25.2 °F 32.0 °F 87% 30.16 in 10.0 mi South 18.4 mph 23.0 mph N/A   Overcast
2:55 AM 35.6 °F 25.9 °F 32.0 °F 87% 30.16 in 10.0 mi South 16.1 mph 23.0 mph N/A   Overcast
3:15 AM 35.6 °F 26.2 °F 32.0 °F 87% 30.16 in 10.0 mi South 15.0 mph 20.7 mph N/A   Overcast
3:35 AM 35.6 °F 25.9 °F 32.0 °F 87% 30.16 in 10.0 mi South 16.1 mph 23.0 mph N/A   Overcast
3:55 AM 35.6 °F 25.9 °F 32.0 °F 87% 30.15 in 10.0 mi South 16.1 mph 23.0 mph N/A   Overcast
4:15 AM 35.6 °F 25.2 °F 32.0 °F 87% 30.14 in 10.0 mi South 18.4 mph 24.2 mph N/A   Overcast
4:35 AM 33.8 °F 24.3 °F 32.0 °F 93% 30.15 in 10.0 mi South 13.8 mph 24.2 mph N/A   Overcast
4:55 AM 33.8 °F 24.8 °F 32.0 °F 93% 30.13 in 10.0 mi South 12.7 mph 19.6 mph N/A   Overcast
5:15 AM 33.8 °F 23.9 °F 32.0 °F 93% 30.13 in 10.0 mi South 15.0 mph 25.3 mph N/A   Overcast
5:35 AM 33.8 °F 24.3 °F 32.0 °F 93% 30.13 in 10.0 mi SSW 13.8 mph 21.9 mph N/A   Overcast
5:55 AM 33.8 °F 23.2 °F 32.0 °F 93% 30.13 in 10.0 mi South 17.3 mph 23.0 mph N/A   Overcast
6:15 AM 33.8 °F 23.5 °F 32.0 °F 93% 30.13 in 10.0 mi South 16.1 mph 21.9 mph N/A   Overcast
6:35 AM 33.8 °F 22.8 °F 32.0 °F 93% 30.12 in 10.0 mi South 18.4 mph 21.9 mph N/A   Overcast
6:55 AM 33.8 °F 24.8 °F 32.0 °F 93% 30.13 in 10.0 mi SSW 12.7 mph - N/A   Overcast
7:15 AM 33.8 °F 24.8 °F 32.0 °F 93% 30.13 in 10.0 mi South 12.7 mph - N/A   Overcast
7:35 AM 33.8 °F 24.3 °F 32.0 °F 93% 30.14 in 10.0 mi SSW 13.8 mph - N/A   Overcast
7:55 AM 33.8 °F 23.2 °F 32.0 °F 93% 30.14 in 10.0 mi SSW 17.3 mph 20.7 mph N/A   Overcast
8:15 AM 33.8 °F 24.3 °F 32.0 °F 93% 30.15 in 10.0 mi South 13.8 mph - N/A   Overcast
8:35 AM 33.8 °F 25.8 °F 32.0 °F 93% 30.16 in 10.0 mi South 10.4 mph 17.3 mph N/A   Overcast
8:55 AM 33.8 °F 24.8 °F 32.0 °F 93% 30.16 in 10.0 mi South 12.7 mph - N/A   Mostly Cloudy
9:15 AM 33.8 °F 24.3 °F 32.0 °F 93% 30.17 in 10.0 mi South 13.8 mph - N/A   Scattered Clouds
9:35 AM 35.6 °F 26.6 °F 32.0 °F 87% 30.17 in 10.0 mi South 13.8 mph - N/A   Scattered Clouds
9:55 AM 35.6 °F 27.1 °F 32.0 °F 87% 30.17 in 10.0 mi South 12.7 mph - N/A   Clear
10:15 AM 37.4 °F 29.3 °F 32.0 °F 81% 30.18 in 10.0 mi SSW 12.7 mph - N/A   Clear
10:35 AM 37.4 °F 28.9 °F 32.0 °F 81% 30.18 in 10.0 mi SSW 13.8 mph - N/A   Clear
10:55 AM 37.4 °F 29.8 °F 32.0 °F 81% 30.17 in 10.0 mi South 11.5 mph - N/A   Clear
11:15 AM 41.0 °F 34.3 °F 32.0 °F 70% 30.16 in 10.0 mi South 11.5 mph - N/A   Clear
11:35 AM 41.0 °F 35.2 °F 33.8 °F 76% 30.16 in 10.0 mi South 9.2 mph - N/A   Clear
11:55 AM 42.8 °F 37.0 °F 33.8 °F 70% 30.15 in 10.0 mi South 10.4 mph - N/A   Clear
12:15 PM 44.6 °F 40.2 °F 33.8 °F 66% 30.13 in 10.0 mi South 8.1 mph - N/A   Clear
12:35 PM 46.4 °F 41.5 °F 33.8 °F 62% 30.11 in 10.0 mi South 10.4 mph - N/A   Clear
12:55 PM 50.0 °F - 35.6 °F 58% 30.09 in 10.0 mi SSW 11.5 mph - N/A   Clear
1:15 PM 51.8 °F - 35.6 °F 54% 30.09 in 10.0 mi SSW 12.7 mph - N/A   Clear
1:35 PM 53.6 °F - 35.6 °F 51% 30.07 in 10.0 mi SSW 10.4 mph - N/A   Clear
1:55 PM 57.2 °F - 35.6 °F 44% 30.05 in 10.0 mi SSW 11.5 mph - N/A   Clear
2:15 PM 59.0 °F - 35.6 °F 42% 30.05 in 10.0 mi South 12.7 mph 16.1 mph N/A   Clear
2:35 PM 59.0 °F - 35.6 °F 42% 30.05 in 10.0 mi SW 11.5 mph 16.1 mph N/A   Clear
2:55 PM 59.0 °F - 35.6 °F 42% 30.04 in 10.0 mi South 6.9 mph - N/A   Clear
3:15 PM 60.8 °F - 37.4 °F 42% 30.04 in 10.0 mi SSW 11.5 mph 16.1 mph N/A   Clear
3:35 PM 59.0 °F - 35.6 °F 42% 30.04 in 10.0 mi SSW 8.1 mph - N/A   Clear
3:55 PM 59.0 °F - 35.6 °F 42% 30.03 in 10.0 mi SSW 10.4 mph - N/A   Clear
4:15 PM 60.8 °F - 35.6 °F 39% 30.03 in 10.0 mi South 10.4 mph - N/A   Clear
4:35 PM 59.0 °F - 35.6 °F 42% 30.04 in 10.0 mi South 12.7 mph - N/A   Clear
4:55 PM 55.4 °F - 35.6 °F 47% 30.04 in 10.0 mi South 10.4 mph - N/A   Clear
5:15 PM 53.6 °F - 35.6 °F 51% 30.05 in 10.0 mi South 6.9 mph - N/A   Clear
5:35 PM 51.8 °F - 35.6 °F 54% 30.05 in 10.0 mi South 6.9 mph - N/A   Clear
5:55 PM 50.0 °F - 35.6 °F 58% 30.07 in 10.0 mi South 5.8 mph - N/A   Clear
6:15 PM 48.2 °F - 33.8 °F 58% 30.07 in 10.0 mi SSE 4.6 mph - N/A   Clear
6:35 PM 46.4 °F 42.9 °F 33.8 °F 62% 30.07 in 10.0 mi SSE 6.9 mph - N/A   Clear
6:55 PM 44.6 °F 42.2 °F 33.8 °F 66% 30.08 in 10.0 mi South 4.6 mph - N/A   Clear
7:15 PM 44.6 °F - 33.8 °F 66% 30.09 in 10.0 mi Calm Calm - N/A   Clear
7:35 PM 41.0 °F - 32.0 °F 70% 30.09 in 10.0 mi Calm Calm - N/A   Clear
7:55 PM 39.2 °F 35.0 °F 32.0 °F 75% 30.11 in 10.0 mi SSW 5.8 mph - N/A   Clear
8:15 PM 37.4 °F - 32.0 °F 81% 30.11 in 10.0 mi Calm Calm - N/A   Clear
8:35 PM 39.2 °F 35.9 °F 32.0 °F 75% 30.11 in 10.0 mi SSW 4.6 mph - N/A   Clear
8:55 PM 41.0 °F 39.0 °F 33.8 °F 76% 30.12 in 10.0 mi SSW 3.5 mph - N/A   Clear
9:15 PM 39.2 °F 35.9 °F 32.0 °F 75% 30.13 in 10.0 mi SSW 4.6 mph - N/A   Clear
9:35 PM 37.4 °F - 32.0 °F 81% 30.14 in 10.0 mi Calm Calm - N/A   Clear
9:55 PM 35.6 °F 32.8 °F 32.0 °F 87% 30.14 in 10.0 mi SSW 3.5 mph - N/A   Clear
10:15 PM 35.6 °F - 32.0 °F 87% 30.13 in 10.0 mi Calm Calm - N/A   Clear
10:35 PM 33.8 °F - 32.0 °F 93% 30.13 in 10.0 mi Calm Calm - N/A   Clear
10:55 PM 35.6 °F 31.7 °F 32.0 °F 87% 30.12 in 10.0 mi SSW 4.6 mph - N/A   Clear
11:15 PM 37.4 °F 32.8 °F 33.8 °F 87% 30.12 in 10.0 mi SSW 5.8 mph - N/A   Clear
11:35 PM 37.4 °F 31.4 °F 33.8 °F 87% 30.12 in 10.0 mi South 8.1 mph - N/A   Clear
11:55 PM 37.4 °F 32.8 °F 33.8 °F 87% 30.11 in 10.0 mi SSW 5.8 mph - N/A   Clear